KF4PPJ Weather Reports


time (UTC)temp
F
wind
direction
speed
knots
gust
knots
rain 1hr
in
rain 24hr
in
rain mn
in
humidity
%
barometer
mb
20260903202624 64 209 2.6 4.3 0.00 0.08 0.08 67 1012.5
20260903202120 65 206 2.6 5.2 0.00 0.08 0.08 64 1012.5
20260903201614 65 121 3.5 7.0 0.00 0.08 0.08 65 1012.3
20260903201114 64 260 2.6 4.3 0.00 0.08 0.08 66 1012.5
20260903200609 63 143 0.9 0.9 0.00 0.08 0.08 68 1012.5
20260903200104 63 203 3.5 5.2 0.00 0.08 0.08 68 1012.4
20260903195600 63 168 3.5 4.3 0.00 0.08 0.08 69 1012.6
20260903195056 62 182 1.7 2.6 0.00 0.08 0.08 70 1012.5
20260903194551 62 201 2.6 5.2 0.00 0.08 0.08 69 1012.5
20260903194045 62 154 2.6 5.2 0.00 0.08 0.08 69 1012.6
20260903193536 62 139 0.9 4.3 0.00 0.08 0.08 69 1012.6
20260903193031 62 168 2.6 2.6 0.00 0.08 0.08 68 1012.6
20260903192528 62 225 1.7 2.6 0.00 0.08 0.08 68 1012.6
20260903192028 62 168 0.9 1.7 0.00 0.08 0.08 68 1012.6
20260903191524 63 215 2.6 4.3 0.00 0.08 0.08 67 1012.6
20260903191019 63 214 2.6 2.6 0.00 0.08 0.08 67 1012.4
20260903190513 63 209 1.7 7.0 0.00 0.08 0.08 67 1012.5
20260903190012 62 168 0.9 4.3 0.00 0.08 0.08 70 1012.5
20260903185508 62 168 0.9 4.3 0.00 0.08 0.08 70 1012.5
20260903185003 62 157 2.6 2.6 0.00 0.08 0.08 71 1012.7
20260903184459 61 181 0.9 2.6 0.00 0.08 0.08 71 1012.6
20260903183953 62 202 1.7 2.6 0.00 0.08 0.08 71 1012.7
20260903183448 62 196 0.9 0.9 0.00 0.08 0.08 72 1012.4
20260903182948 62 204 0.9 4.3 0.00 0.08 0.08 70 1012.4
20260903182447 62 199 2.6 5.2 0.00 0.08 0.08 69 1012.5
20260903181942 62 173 1.7 2.6 0.00 0.08 0.08 70 1012.4
20260903181436 61 203 2.6 4.3 0.00 0.08 0.08 71 1012.3
20260903180936 61 237 4.3 7.8 0.00 0.08 0.08 71 1012.4
20260903180430 61 207 2.6 2.6 0.00 0.08 0.08 72 1012.5
20260903175930 61 188 2.6 4.3 0.00 0.08 0.08 73 1012.3
20260903175425 61 159 0.0 2.6 0.00 0.08 0.08 75 1012.4
20260903174918 61 143 0.0 1.7 0.00 0.08 0.08 74 1012.4
20260903174414 61 171 1.7 1.7 0.00 0.08 0.08 75 1012.2
20260903173908 61 172 0.9 4.3 0.00 0.08 0.08 75 1012.2
20260903173403 61 127 4.3 5.2 0.00 0.08 0.08 75 1012.1
20260903172859 61 217 3.5 4.3 0.00 0.08 0.08 75 1012.3
20260903172354 61 186 2.6 5.2 0.00 0.08 0.08 75 1012.2
20260903171849 61 205 3.5 7.8 0.00 0.08 0.08 75 1012.1
20260903171344 61 206 3.5 5.2 0.00 0.08 0.08 76 1012.1
20260903170843 61 74 4.3 7.8 0.00 0.08 0.08 77 1011.9
20260903170338 60 177 3.5 5.2 0.00 0.08 0.08 79 1012.1
20260903165837 59 201 1.7 4.3 0.00 0.08 0.08 81 1012.1
20260903165336 59 167 0.0 1.7 0.00 0.08 0.08 85 1012.1
20260903164831 58 112 0.0 0.9 0.00 0.08 0.08 87 1011.8
20260903164327 57 143 0.0 0.9 0.00 0.08 0.08 87 1012.0
20260903163826 57 149 0.0 1.7 0.00 0.08 0.08 86 1012.1
20260903163323 57 133 1.7 1.7 0.00 0.08 0.08 86 1012.3
20260903162818 57 140 0.0 0.0 0.00 0.08 0.08 86 1012.3
20260903162315 57 98 3.5 5.2 0.00 0.08 0.08 86 1012.2
20260903161810 57 87 1.7 1.7 0.00 0.08 0.08 89 1012.1
20260903161306 57 150 0.9 0.9 0.00 0.08 0.08 89 1011.9
20260903160801 57 151 0.0 0.9 0.00 0.08 0.08 89 1012.0
20260903160300 57 88 0.9 2.6 0.00 0.08 0.08 88 1012.1
20260903155759 57 145 0.0 0.9 0.00 0.08 0.08 88 1012.4
20260903155254 57 127 0.0 2.6 0.00 0.08 0.08 86 1012.1
20260903154749 57 131 0.9 1.7 0.00 0.08 0.08 87 1012.3
20260903154245 58 192 2.6 2.6 0.00 0.08 0.08 86 1012.0
20260903153741 58 196 2.6 2.6 0.00 0.08 0.08 86 1012.0
20260903153236 59 133 1.7 2.6 0.00 0.08 0.08 87 1012.0
20260903152733 58 127 0.9 1.7 0.00 0.08 0.08 90 1012.0
20260903152229 57 80 0.0 2.6 0.00 0.08 0.08 91 1012.0
20260903151728 57 126 2.6 5.2 0.00 0.08 0.08 92 1012.0
20260903151224 56 162 0.9 0.9 0.00 0.08 0.08 95 1012.2
20260903150718 55 108 1.7 1.7 0.00 0.08 0.08 95 1011.9
20260903150213 55 148 0.0 0.0 0.00 0.08 0.08 95 1012.0
20260903145708 54 155 0.0 0.9 0.00 0.08 0.08 95 1011.9
20260903145203 54 159 0.9 0.9 0.00 0.08 0.08 96 1012.0
20260903144701 54 142 0.0 2.6 0.00 0.08 0.08 96 1011.9
20260903144157 53 155 0.0 0.0 0.00 0.08 0.08 96 1011.8
20260903143654 53 158 0.0 0.0 0.00 0.08 0.08 96 1011.9
20260903143149 53 154 0.0 0.0 0.00 0.08 0.08 96 1011.8
20260903142644 53 154 0.0 0.0 0.00 0.08 0.08 96 1011.7
20260903142141 53 151 0.0 0.0 0.00 0.08 0.08 96 1011.9
20260903141637 53 154 0.0 0.0 0.05 0.08 0.08 96 1011.8
20260903141131 53 172 0.0 0.0 0.05 0.08 0.08 96 1011.8
20260903140628 53 152 0.0 0.0 0.00 0.07 0.07 96 1011.7
20260903140122 53 170 0.0 0.0 0.00 0.07 0.07 96 1011.7
20260903135618 53 149 0.0 0.0 0.00 0.07 0.07 96 1011.8
20260903135118 53 179 0.0 0.0 0.00 0.07 0.07 96 1011.5
20260903134617 53 161 0.0 0.0 0.00 0.07 0.07 95 1011.7
20260903134113 53 147 0.0 0.0 0.00 0.07 0.07 95 1011.4
20260903133610 53 175 0.9 0.9 0.00 0.07 0.07 95 1011.5
20260903133107 53 150 0.0 0.9 0.00 0.07 0.07 95 1011.6
20260903132601 53 146 0.9 0.9 0.00 0.07 0.07 95 1011.6
20260903132056 53 150 0.0 0.0 0.00 0.07 0.07 95 1011.3
20260903131556 53 159 0.0 0.0 0.07 0.07 0.07 95 1011.4
20260903131049 53 143 0.9 0.9 0.07 0.07 0.07 95 1011.4
20260903130543 53 152 0.0 0.0 0.00 0.06 0.06 95 1011.5
20260903130038 53 157 0.0 0.0 0.05 0.06 0.06 95 1011.3
20260903125537 53 142 0.0 0.9 0.00 0.05 0.05 94 1011.3
20260903125032 53 154 0.0 0.0 0.07 0.05 0.05 94 1011.5
20260903124532 53 155 0.0 0.9 0.07 0.05 0.05 94 1011.4
20260903124027 53 136 0.9 0.9 0.00 0.04 0.04 94 1011.4
20260903123526 53 153 0.0 0.0 0.00 0.04 0.04 94 1011.4
20260903123025 53 154 0.0 0.0 0.00 0.04 0.04 93 1011.2
20260903122519 53 148 0.0 0.0 0.05 0.04 0.04 93 1011.4
20260903122019 53 148 0.0 0.0 0.05 0.04 0.04 92 1011.4
20260903121514 53 146 0.0 0.9 0.07 0.03 0.03 92 1011.2
20260903121010 53 136 0.9 0.9 0.12 0.03 0.03 91 1011.2
20260903120509 53 125 0.0 0.9 0.12 0.02 0.02 91 1011.3
20260903120009 53 144 0.0 0.9 0.07 0.01 0.01 91 1011.2
20260903115508 53 191 1.7 1.7 0.00 0.00 0.00 90 1011.1
20260903115007 53 141 0.9 0.9 0.00 0.00 0.00 90 1011.1
20260903114457 53 175 1.7 1.7 0.00 0.00 0.00 90 1010.7
20260903113953 54 157 0.9 0.9 0.00 0.00 0.00 89 1011.0
20260903113449 54 140 0.9 1.7 0.00 0.00 0.00 89 1010.8
20260903112944 54 150 0.0 1.7 0.00 0.00 0.00 89 1010.8
20260903112440 54 136 0.0 0.0 0.00 0.00 0.00 90 1010.8
20260903111939 54 149 0.0 1.7 0.00 0.00 0.00 90 1010.7
20260903111439 53 144 0.0 0.9 0.00 0.00 0.00 92 1010.7
20260903110935 53 159 0.0 0.9 0.00 0.00 0.00 92 1010.7
20260903110430 53 159 0.9 0.9 0.00 0.00 0.00 93 1010.8
20260903105926 53 149 0.0 0.9 0.00 0.00 0.00 93 1010.7
20260903105421 53 156 0.0 0.0 0.00 0.00 0.00 92 1010.8
20260903104920 53 145 0.0 0.0 0.00 0.00 0.00 93 1010.7
20260903104420 53 144 0.9 0.9 0.00 0.00 0.00 93 1010.5
20260903103917 53 158 0.0 0.0 0.00 0.00 0.00 93 1010.8
20260903103413 53 146 0.0 0.0 0.00 0.00 0.00 93 1010.8
20260903102908 53 142 0.0 0.0 0.00 0.00 0.00 93 1011.1
20260903102402 53 154 0.0 0.0 0.00 0.00 0.00 93 1010.6
20260903101857 53 116 0.0 0.0 0.00 0.00 0.00 93 1010.8
20260903101357 53 145 0.0 0.0 0.00 0.00 0.00 93 1010.9
20260903100852 53 158 0.0 0.0 0.00 0.00 0.00 93 1010.6
20260903100347 53 163 0.0 0.0 0.00 0.00 0.00 94 1010.8
20260903095838 54 185 0.0 0.0 0.00 0.00 0.00 93 1010.8
20260903095338 53 153 0.0 0.0 0.00 0.00 0.00 94 1010.8
20260903094834 53 156 0.0 0.0 0.00 0.00 0.00 94 1010.5
20260903094328 53 149 0.0 0.0 0.00 0.00 0.00 94 1010.7
20260903093824 54 158 0.0 0.0 0.00 0.00 0.00 93 1010.9
20260903093319 54 144 0.0 0.0 0.00 0.00 0.00 93 1010.8
20260903092814 54 146 0.0 0.0 0.00 0.00 0.00 93 1010.7
20260903092309 54 152 0.0 0.0 0.00 0.00 0.00 93 1010.9
20260903091807 54 154 0.0 0.0 0.00 0.00 0.00 92 1010.8
20260903091302 54 150 0.0 0.0 0.00 0.00 0.00 92 1010.6
20260903090758 54 135 0.0 0.0 0.00 0.00 0.00 92 1010.6
20260903090257 54 166 0.0 0.0 0.00 0.00 0.00 92 1010.7
20260903085755 54 168 0.0 0.0 0.00 0.00 0.00 93 1010.7
20260903085249 54 115 0.9 1.7 0.00 0.00 0.00 93 1010.7
20260903084748 54 151 0.0 0.0 0.00 0.00 0.00 93 1010.6
20260903084237 54 194 0.9 1.7 0.00 0.00 0.00 94 1010.7
20260903083733 54 171 0.0 0.0 0.00 0.00 0.00 94 1010.5
20260903083227 54 165 0.0 0.0 0.00 0.00 0.00 94 1010.6
20260903082726 54 181 0.0 0.0 0.00 0.00 0.00 94 1010.7
20260903082222 54 162 0.0 1.7 0.00 0.00 0.00 95 1010.6
20260903081722 54 157 0.0 0.0 0.00 0.00 0.00 95 1010.5
20260903081218 54 141 0.0 0.0 0.00 0.00 0.00 95 1010.4
20260903080714 54 141 0.0 0.0 0.00 0.00 0.00 95 1010.4
20260903080212 54 111 0.9 0.9 0.00 0.00 0.00 95 1010.6
20260903075710 54 148 0.9 0.9 0.00 0.00 0.00 95 1010.6
20260903075206 54 173 0.0 2.6 0.00 0.00 0.00 96 1010.6
20260903074704 54 151 0.0 0.0 0.00 0.00 0.00 96 1010.5
20260903074200 53 145 0.0 0.0 0.00 0.00 0.00 96 1010.6
20260903073655 53 147 0.9 0.9 0.00 0.00 0.00 96 1010.6
20260903073151 53 133 0.9 0.9 0.00 0.00 0.00 95 1010.3
20260903072646 53 144 0.0 0.9 0.00 0.00 0.00 96 1010.5
20260903072143 53 170 0.9 0.9 0.00 0.00 0.00 95 1010.5
20260903071639 53 158 0.9 0.9 0.00 0.00 0.00 95 1010.4
20260903071134 53 125 0.9 1.7 0.00 0.00 0.00 95 1010.3
20260903070633 53 136 0.9 0.9 0.00 0.00 0.00 95 1010.2
20260903070129 53 135 0.9 0.9 0.00 0.00 0.00 95 1010.3
20260903065629 53 142 0.9 0.9 0.00 0.19 0.19 95 1010.3
20260903065124 53 126 0.9 1.7 0.00 0.19 0.19 95 1010.4
20260903064618 53 161 0.9 0.9 0.00 0.19 0.19 95 1010.3
20260903064114 53 154 0.0 0.0 0.00 0.19 0.19 95 1010.3
20260903063609 53 147 0.0 0.0 0.00 0.19 0.19 95 1010.3
20260903063104 53 118 0.0 0.0 0.00 0.19 0.19 95 1010.2
20260903062559 53 143 0.0 0.0 0.00 0.19 0.19 95 1010.3
20260903062054 53 153 0.0 0.0 0.00 0.19 0.19 95 1010.3
20260903061549 53 144 0.9 1.7 0.00 0.19 0.19 95 1010.4
20260903061049 53 118 0.0 0.0 0.00 0.19 0.19 95 1010.3
20260903060549 53 144 0.0 0.9 0.00 0.19 0.19 95 1010.2
20260903060044 53 157 0.9 0.9 0.00 0.19 0.19 96 1010.5
20260903055542 53 158 0.0 0.0 0.00 0.19 0.19 95 1010.4
20260903055041 53 157 0.0 0.0 0.00 0.19 0.19 95 1010.4
20260903054536 53 157 0.0 0.0 0.00 0.19 0.19 95 1010.5
20260903054032 53 162 0.0 0.9 0.00 0.19 0.19 95 1010.4
20260903053532 54 140 0.9 1.7 0.00 0.19 0.19 95 1010.4
20260903053028 54 135 1.7 1.7 0.00 0.19 0.19 95 1010.4
20260903052524 54 147 0.0 1.7 0.00 0.19 0.19 95 1010.5
20260903052019 54 149 0.9 1.7 0.00 0.19 0.19 95 1010.3
20260903051514 54 109 2.6 2.6 0.00 0.19 0.19 95 1010.3
20260903051010 54 141 1.7 2.6 0.00 0.19 0.19 95 1010.4
20260903050509 54 155 0.0 0.9 0.00 0.19 0.19 95 1010.4
20260903050005 54 146 0.0 0.0 0.00 0.19 0.19 94 1010.5
20260903045459 54 139 1.7 1.7 0.00 0.19 0.19 94 1010.2
20260903044955 54 127 0.9 2.6 0.00 0.19 0.19 94 1010.4
20260903044451 55 135 0.9 1.7 0.00 0.19 0.19 94 1010.3
20260903043947 55 132 1.7 1.7 0.00 0.19 0.19 94 1010.3
20260903043443 55 136 1.7 1.7 0.00 0.19 0.19 93 1010.3
20260903042941 55 143 0.0 0.9 0.00 0.19 0.19 93 1010.2
20260903042436 55 136 1.7 1.7 0.00 0.19 0.19 92 1010.2
20260903041932 55 139 2.6 2.6 0.00 0.19 0.19 92 1010.0
20260903041428 56 133 1.7 2.6 0.00 0.19 0.19 91 1010.2
20260903040924 56 131 1.7 2.6 0.00 0.19 0.19 90 1010.0
20260903040423 57 156 0.9 1.7 0.00 0.19 0.19 88 1009.9
20260903035919 57 157 0.0 0.0 0.00 0.19 0.19 87 1010.0
20260903035415 58 153 0.0 0.0 0.00 0.19 0.19 86 1009.8
20260903034914 58 167 0.0 0.9 0.00 0.19 0.19 86 1009.9
20260903034409 58 150 0.0 0.0 0.00 0.19 0.19 85 1009.7
20260903033905 58 135 0.9 2.6 0.00 0.19 0.19 85 1009.7
20260903033359 58 161 0.0 0.9 0.00 0.19 0.19 87 1009.6
20260903032854 57 137 0.0 1.7 0.00 0.19 0.19 89 1009.4
20260903032350 57 180 1.7 1.7 0.00 0.19 0.19 92 1009.4
20260903031845 57 100 0.9 1.7 0.00 0.19 0.19 94 1009.6
20260903031344 56 83 1.7 8.7 0.00 0.19 0.19 94 1009.5
20260903030840 56 162 0.0 0.9 0.00 0.19 0.19 94 1009.3
20260903030336 56 156 0.0 0.9 0.00 0.19 0.19 94 1009.2
20260903025832 56 149 0.0 0.9 0.00 0.19 0.19 93 1009.3
20260903025327 56 163 0.0 0.0 0.00 0.19 0.19 93 1009.1
20260903024827 56 149 0.0 0.9 0.00 0.19 0.19 93 1009.2
20260903024326 56 145 0.0 0.0 0.00 0.19 0.19 92 1009.2
20260903023822 56 157 0.0 0.9 0.00 0.19 0.19 92 1008.9
20260903023317 56 153 0.0 0.9 0.00 0.19 0.19 91 1008.9
20260903022812 57 117 0.9 1.7 0.00 0.19 0.19 90 1008.9
20260903022310 57 110 1.7 2.6 0.00 0.19 0.19 89 1008.9
20260903021804 58 125 0.9 1.7 0.00 0.19 0.19 88 1008.8
20260903021301 59 155 0.0 0.9 0.00 0.19 0.19 87 1008.6
20260903020801 59 131 0.9 0.9 0.00 0.19 0.19 84 1008.6
20260903020255 59 175 0.0 0.9 0.00 0.19 0.19 83 1008.5
20260903015751 59 181 0.9 2.6 0.00 0.19 0.19 82 1008.6
20260903015246 60 187 1.7 2.6 0.00 0.19 0.19 81 1008.5
20260903014741 60 197 4.3 7.8 0.00 0.19 0.19 81 1008.6
20260903014240 60 197 1.7 4.3 0.00 0.19 0.19 82 1008.6
20260903013736 61 166 2.6 2.6 0.00 0.19 0.19 82 1008.5
20260903013235 60 174 1.7 1.7 0.00 0.19 0.19 83 1008.4
20260903012734 61 206 1.7 6.1 0.00 0.19 0.19 84 1008.4
20260903012234 60 169 1.7 5.2 0.00 0.19 0.19 86 1008.2
20260903011728 60 222 4.3 7.8 0.00 0.19 0.19 86 1008.3
20260903011222 60 187 3.5 13.0 0.00 0.19 0.19 85 1008.5
20260903010718 60 211 7.0 8.7 0.00 0.19 0.19 88 1008.4
20260903010217 60 185 1.7 6.1 0.00 0.19 0.19 88 1007.9
20260903005717 60 175 3.5 6.1 0.00 0.19 0.19 89 1007.9
20260903005212 60 205 3.5 5.2 0.00 0.19 0.19 90 1007.9
20260903004708 60 164 1.7 6.1 0.00 0.19 0.19 92 1007.9
20260903004203 60 189 4.3 6.1 0.00 0.19 0.19 93 1007.6
20260903003658 60 164 3.5 5.2 0.00 0.19 0.19 94 1007.7
20260903003152 60 149 0.9 5.2 0.07 0.19 0.19 94 1007.8
20260903002648 59 188 0.9 1.7 0.05 0.18 0.18 94 1007.7
20260903002142 59 143 1.7 1.7 0.24 0.18 0.18 94 1007.8
20260903001637 60 187 2.6 2.6 0.12 0.16 0.16 93 1007.8
20260903001136 60 169 2.6 2.6 0.00 0.14 0.14 94 1007.9
20260903000632 60 180 0.0 0.9 0.00 0.14 0.14 94 1007.4
20260903000126 60 159 0.9 0.9 0.00 0.14 0.14 93 1007.4
20260902235625 60 164 0.0 0.0 0.00 0.14 0.14 94 1007.2
20260902235120 60 183 0.0 0.0 0.00 0.14 0.14 93 1007.4
20260902234614 60 143 0.0 0.0 0.00 0.14 0.14 94 1007.3
20260902234112 60 179 0.0 0.0 0.00 0.14 0.14 94 1007.3
20260902233608 60 142 0.0 0.0 0.00 0.14 0.14 94 1007.2
20260902233103 60 195 0.0 0.0 0.00 0.14 0.14 94 1007.1
20260902232601 59 164 0.0 0.0 0.00 0.14 0.14 94 1007.0
20260902232055 59 153 0.0 0.0 0.00 0.14 0.14 94 1007.1
20260902231550 59 118 0.9 1.7 0.00 0.14 0.14 94 1007.1
20260902231044 59 175 0.9 1.7 0.05 0.14 0.14 94 1007.2
20260902230539 59 155 0.0 0.0 0.00 0.13 0.13 93 1007.3
20260902230038 59 158 0.9 0.9 0.07 0.13 0.13 93 1007.4
20260902225533 59 126 0.9 0.9 0.12 0.13 0.13 93 1007.4
20260902225032 59 153 0.0 0.9 0.12 0.12 0.12 93 1007.5
20260902224531 59 163 0.0 0.0 0.07 0.11 0.11 93 1007.5
20260902224027 59 147 0.0 0.0 0.05 0.10 0.10 92 1007.4
20260902223523 59 149 0.0 0.0 0.00 0.09 0.09 92 1007.6
20260902223022 59 152 0.0 0.0 0.07 0.09 0.09 92 1007.5
20260902222521 59 143 0.0 0.9 0.00 0.08 0.08 91 1007.3
20260902222020 59 175 0.0 0.0 0.07 0.08 0.08 91 1007.6
20260902221515 60 153 0.0 0.0 0.07 0.08 0.08 91 1007.5
20260902221011 59 153 0.0 0.0 0.05 0.07 0.07 91 1007.3
20260902220506 59 133 0.9 0.9 0.05 0.07 0.07 90 1007.5
20260902220000 59 175 0.9 0.9 0.00 0.06 0.06 90 1007.5
20260902215456 59 163 0.0 1.7 0.07 0.06 0.06 88 1007.7
20260902214951 60 163 0.9 0.9 0.07 0.06 0.06 88 1007.5
20260902214451 60 156 0.9 0.9 0.05 0.05 0.05 87 1007.5
20260902213950 60 158 0.9 0.9 0.05 0.05 0.05 87 1007.5
20260902213447 60 193 1.7 2.6 0.07 0.04 0.04 85 1007.6
20260902212944 60 148 0.9 1.7 0.00 0.03 0.03 84 1007.6
20260902212441 60 193 0.9 1.7 0.00 0.03 0.03 84 1007.7
20260902211932 60 230 1.7 2.6 0.05 0.03 0.03 83 1007.7
20260902211427 60 171 0.9 2.6 0.05 0.03 0.03 82 1007.6
20260902210917 61 164 1.7 2.6 0.00 0.02 0.02 82 1007.6
20260902210417 61 152 2.6 2.6 0.00 0.02 0.02 81 1007.9
20260902205915 61 202 2.6 4.3 0.07 0.02 0.02 81 1007.5
20260902205409 62 178 0.0 0.9 0.07 0.02 0.02 80 1007.5
20260902204905 62 197 3.5 6.1 0.00 0.01 0.01 77 1007.6
20260902204404 63 168 4.3 5.2 0.00 0.01 0.01 76 1007.7
20260902203900 63 185 4.3 5.2 0.00 0.01 0.01 74 1007.6
20260902203356 64 173 2.6 4.3 0.00 0.01 0.01 72 1007.6